Location: Colconda
(10.2500°N, 61.4333°W)
Time: 00:41:46
(UTC+00:00)

Daily predictions for brighter satellites

Satellite Brightness Start Highest point End
(mag) Time Altitude Azimuth Time Altitude Azimuth Time Altitude Azimuth
USA 234 3.4 00:08:45 63° S 00:08:45 63° S 00:14:18 10° SSW
COSMOS 2428 4.5 00:03:49 10° S 00:05:40 21° S 00:05:40 21° S
Cosmos 2360 Rocket 2.9 00:04:15 10° SSW 00:09:15 48° W 00:09:15 48° W
Milstar 3 Cent rocket 4.1 00:51:07 10° WSW 00:58:22 40° W 00:58:22 40° W
Centaur AC-102 4.3 07:52:32 55° NNE 07:52:32 55° NNE 07:56:45 10° ENE
ARIANE 5 DEB (SYLDA) 4.3 07:53:44 38° SSW 07:55:40 46° S 08:16:55 10° E
Meteor 1-11 Rocket 3.9 08:08:38 10° S 08:14:35 75° E 08:18:46 20° NNE
OAO 3 Rocket 3.6 08:18:08 58° SE 08:18:09 58° SE 08:22:52 10° ENE
Cosmos 1536 3.8 08:16:38 10° S 08:19:58 46° SE 08:19:58 46° SE
Cosmos 2369 3.7 08:22:28 58° N 08:23:37 81° ENE 08:29:18 10° SSE
Meteor 1-18 Rocket 4.2 08:23:24 70° NW 08:23:59 76° W 08:29:54 10° S
Cosmos 2278 3.8 08:22:38 52° N 08:24:02 75° ENE 08:29:42 10° SSE
ATLAS CENTAUR R/B 4.5 08:25:34 10° SE 08:27:40 14° ESE 08:29:41 10° E
Meteor 1-5 Rocket 4.4 08:26:29 10° S 08:32:03 67° E 08:37:26 10° NNE
FUSE 3.7 08:31:33 72° NW 08:32:04 81° NNE 08:37:22 10° ESE
Centaur D-1A AC-31 1.9 08:29:28 21° SW 08:32:49 53° SSE 08:36:15 10° ENE
Cosmos 1697 Rocket 3.1 08:36:59 20° N 08:40:47 59° ENE 08:46:17 10° SSE
Cosmos 1241 Rocket 4.3 08:42:45 38° NW 08:45:14 71° WSW 08:51:29 10° SSE
Nadezhda 4 Rocket 3.9 08:41:18 10° S 08:47:30 85° W 08:53:38 10° N
Meteor 1-19 Rocket 4.5 08:43:05 10° N 08:48:56 72° E 08:54:42 10° SSE
Tiangong 2 1.4 08:51:16 57° S 08:51:16 57° S 08:54:02 10° SE
CZ-2C R/B 4.3 08:47:15 10° NE 08:51:16 29° E 08:55:13 10° SSE
Cosmos 1634 Rocket 4.4 08:51:51 33° NW 08:53:40 41° W 08:59:29 10° SSW
Cosmos 192 4.5 08:50:23 10° SSW 08:55:03 46° WNW 08:59:44 10° N
Tiangong 1 2.5 08:58:03 22° NE 08:58:03 22° NE 08:59:06 10° NE
Palapa B4 Rocket 4.1 08:55:56 32° NNW 08:57:43 46° NNE 09:04:12 10° E
Cosmos 1437 Rocket 3.8 08:54:35 10° SSW 08:57:05 29° WSW 08:57:05 29° WSW
Cosmos 773 Rocket 4.4 08:54:12 10° SW 08:58:48 35° WNW 09:03:27 10° N
Cosmos 2285 Rocket 4.2 08:52:39 10° S 08:58:59 73° ESE 09:05:16 10° NNE
Milstar 3 Cent rocket 3.9 08:54:03 27° NW 08:59:16 73° NNE 09:16:28 10° ESE
Meteor 2-20 Rocket 4.4 08:56:00 10° SSW 09:02:02 58° W 09:08:01 10° N
Ariane H10 4.3 08:58:54 22° WSW 09:03:26 76° S 09:43:10 10° E
Ariane H10+ 3.3 09:03:51 25° SSW 09:04:30 31° S 09:07:01 10° ESE
NOAA 6 3.9 09:00:32 10° N 09:05:39 74° WNW 09:10:48 10° SSW
deb Ariane 3.7 09:05:02 29° WSW 09:06:23 61° S 09:12:16 10° E
Lacrosse 5 rocket 1.8 09:05:11 19° NNW 09:08:21 63° ENE 09:12:37 10° SE
SJ 16-02 1.7 09:08:05 28° NW 09:09:54 43° W 09:14:05 10° S
Cosmos 1680 Rocket 3.4 09:06:56 10° SSW 09:12:08 82° WNW 09:17:19 10° N
Cosmos 1300 Rocket 4.0 09:08:29 10° SSW 09:12:27 36° W 09:16:19 10° NNW
Cosmos 1975 Rocket 4.3 09:13:20 22° W 09:13:20 22° W 09:16:26 10° SW
GEOS 3 Rocket 3.7 09:10:01 10° NNE 09:15:22 87° ESE 09:20:36 10° SSW
USA 116 4.4 09:12:50 10° SSE 09:18:03 79° ENE 09:22:50 10° N
ARIANE 5 DEB (SYLDA) 4.1 09:08:04 10° WSW 09:18:27 50° S 09:22:15 10° ESE
RESURS DK-1 3.1 09:14:26 10° N 09:18:28 52° ENE 09:22:29 10° SSE
Cosmos 1125 Rocket 4.2 09:15:53 20° NW 09:18:36 33° W 09:23:14 10° SSW
GPS 2-12 Rocket1 4.5 09:19:50 17° NW 09:21:59 24° N 09:25:43 10° NE
Cosmos 1980 Rocket 2.3 09:16:24 10° NNW 09:22:04 82° ENE 09:27:41 10° SSE
ARIANE DEB (SPELDA) 3.7 09:23:50 10° SW 09:25:49 18° S 09:27:39 10° SE
Cosmos 1092 Rocket 4.1 09:23:40 10° SSW 09:29:35 50° W 09:35:29 10° N
CZ-3B R/B 3.7 09:28:03 14° NW 09:31:07 26° N 09:32:59 10° ENE
COSMO-SKYMED 1 3.0 09:30:33 10° SSE 09:34:50 64° ENE 09:39:06 10° N
IDEFIX/ARIANE 42P 2.8 09:30:52 10° N 09:35:52 48° WNW 09:40:54 10° SSW
BLOCK DM-SL R/B 4.2 09:33:35 10° SW 09:37:08 38° SSE 09:53:12 10° E
Cosmos 1975 2.8 09:34:56 10° S 09:38:54 89° ESE 09:42:53 10° N
Cosmos 1536 Rocket 4.0 09:37:08 10° NNW 09:41:14 41° W 09:45:23 10° SSW
Cosmos 1515 4.2 09:37:48 10° N 09:41:36 65° E 09:45:24 10° SSE
Ariane H10-3 3.4 09:30:38 10° W 09:42:04 46° SSW 09:45:05 10° ESE
Cosmos 2026 Rocket 4.0 09:36:11 10° S 09:42:21 73° W 09:48:36 10° N
CZ-2C R/B 4.0 09:38:45 10° S 09:42:58 45° WSW 09:47:12 10° NNW
GPS 2-14 Rocket1 4.4 09:40:49 10° NW 09:43:30 18° N 09:46:16 10° NE
Cosmos 1655 Rocket 4.2 09:41:25 10° S 09:47:37 83° E 09:53:51 10° N
Okean 1 Rocket 4.3 09:46:55 10° SW 09:50:08 20° W 09:53:22 10° NW
Ariane H10-3 3.5 09:51:07 10° WSW 09:53:45 17° SSW 09:55:27 10° SSE
Meteor 2-4 Rocket 4.5 09:51:10 10° NNW 09:56:03 32° W 10:01:03 10° SSW
Meteor 1-12 Rocket 4.3 09:52:28 10° S 09:58:14 74° W 10:03:55 10° N
Ariane H10-3 4.0 09:57:57 10° W 10:11:49 50° SSW 10:15:10 10° ESE
